{"data":{"norad_id":52374,"epoch":"2026-09-19T22:31:19.905312Z","epoch_age_seconds":108149,"freshness":"FRESH","line1":"1 52374U 22045AV  26262.93842483 -.00002271  00000+0 -56112-4 0  9995","line2":"2 52374  53.1597  22.0990 0000982  78.5740 281.5372 15.34399253245457","mean_motion":15.34399253,"eccentricity":9.82e-5,"inclination_deg":53.1597,"raan_deg":22.099,"arg_perigee_deg":78.574,"mean_anomaly_deg":281.5372,"bstar":-5.6112e-5,"rev_number":24545,"period_min":93.847803769753,"perigee_km":462.03368971981,"apogee_km":463.37723117905,"semimajor_km":6840.8424604494,"source":"CELESTRAK","updated_at":"2026-09-20T09:00:40.029633Z"}}